Location: Unspecified
(0.0000°N, 0.0000°E)
Time: 20:53:48
(UTC+00:00)

N. Korean satellite - Pass Details

Date: 21 January 2020
Orbit: 456 x 505 km, 97.2° (Epoch: 24 February)

Event Time Altitude Azimuth Distance (km) Brightness Sun altitude
Rises 04:30:45 0° 48° (NE) 2,552 10.6 -23.5°
Reaches altitude 10° 04:34:19 10° 86° (E) 1,688 10.2 -22.6°
Maximum altitude 04:35:16 11° 102° (ESE) 1,640 10.3 -22.4°
Drops below altitude 10° 04:36:14 10° 117° (ESE) 1,696 10.4 -22.2°
Sets 04:39:50 0° 155° (SSE) 2,593 11.0 -21.4°
